Find Starlink 30773

NORAD ID: 58161 Int'l Des: 2023-166 Owner: SPXS Country: US Constellation: starlink operational
LEOCIRCULAR

实时位置

正在加载3D地球...

关于 Starlink 30773

正在加载描述...

即将过境

Passes for default location (London). Set your location on the main map for personalized predictions.

高度历史

Loading altitude history...

两行轨道根数

1 58161U 23166M 26125.01675302 .00000767 00000-0 38015-4 0 9990
2 58161 53.1605 317.9321 0001108 91.6310 268.4817 15.30201196141807
Epoch: May 5, 2026 • Age: 9 hours

当前状态

高度 493.5 km
速度 7.62 km/s
星下点 -50.84°S, 161.15°W
发射日期 Oct 29, 2023
运行时间 2.5 years
类型 internet

技术详情

分类 Payload
质量 730.00 kg
干质量 700.00 kg
总质量 730.00 kg
长度 0.30 m
直径 4.10 m
跨度 29.00 m
形状 Box + pan
制造商 SPXS
平台类型 Starlink V2M
阶段状态 In Orbit
所有者/国家 SPXS/US

Most Searched